,,,PA_Meas_PMT16A,,PR_Meas_QMR101_102,,RH_Meas_QMH101,,SR_Meas_QMS101,,TA_Meas_QMH101,,GenWind,,GenWind,
date,time,status,PA,status,PR,status,RH,status,SR,status,TA,status,DirAvg,status,SpdAvg,
2009-11-03, 00:00:04,VALID,1005.17,VALID,0,VALID,86.9921,VALID,0.100563,VALID,25.413,VALID,348,VALID,0.582031,
2009-11-03, 00:01:04,VALID,1005.16,VALID,0,VALID,86.8929,VALID,0.100563,VALID,25.4325,VALID,348,VALID,0.467578,
2009-11-03, 00:02:04,VALID,1005.13,VALID,0,VALID,86.7633,VALID,0.100563,VALID,25.4734,VALID,348,VALID,0.444141,
2009-11-03, 00:03:04,VALID,1005.11,VALID,0,VALID,86.6946,VALID,0.100563,VALID,25.4734,VALID,348,VALID,0.514453,
2009-11-03, 00:04:04,VALID,1005.09,VALID,0,VALID,86.481,VALID,0.100563,VALID,25.4928,VALID,343,VALID,0.514844,
2009-11-03, 00:05:04,VALID,1005.08,VALID,0,VALID,86.2598,VALID,0.100563,VALID,25.5104,VALID,350,VALID,0.634766,
2009-11-03, 00:06:04,VALID,1005.05,VALID,0,VALID,85.9775,VALID,0.100563,VALID,25.5707,VALID,342,VALID,0.513281,
2009-11-03, 00:07:04,VALID,1005,VALID,0,VALID,85.741,VALID,0.100563,VALID,25.6097,VALID,340,VALID,0.523438,
2009-11-03, 00:08:04,VALID,1005,VALID,0,VALID,85.68,VALID,0.100563,VALID,25.6486,VALID,335,VALID,0.630469,
2009-11-03, 00:09:04,VALID,1004.95,VALID,0,VALID,85.6189,VALID,0.100563,VALID,25.6681,VALID,346,VALID,0.4375,
2009-11-03, 00:10:04,VALID,1004.95,VALID,0,VALID,85.3901,VALID,0.100563,VALID,25.6856,VALID,359,VALID,0.892969,
2009-11-03, 00:11:04,VALID,1004.93,VALID,0,VALID,85.1917,VALID,0.100563,VALID,25.7051,VALID,341,VALID,0.959375,
2009-11-03, 00:12:04,VALID,1004.9,VALID,0,VALID,85.207,VALID,0.100563,VALID,25.744,VALID,334,VALID,0.424609,
2009-11-03, 00:13:04,VALID,1004.9,VALID,0,VALID,85.2604,VALID,0,VALID,25.7265,VALID,335,VALID,0.464063,
2009-11-03, 00:14:04,VALID,1004.88,VALID,0,VALID,85.3061,VALID,0,VALID,25.709,VALID,334,VALID,0.419141,
2009-11-03, 00:15:04,VALID,1004.9,VALID,0,VALID,85.4358,VALID,0,VALID,25.67,VALID,348,VALID,0.569922,
2009-11-03, 00:16:04,VALID,1004.87,VALID,0,VALID,85.474,VALID,0,VALID,25.67,VALID,350,VALID,0.498047,
2009-11-03, 00:17:04,VALID,1004.85,VALID,0,VALID,85.3977,VALID,0.100563,VALID,25.6681,VALID,326,VALID,0.694141,
2009-11-03, 00:18:04,VALID,1004.86,VALID,0,VALID,85.4206,VALID,0,VALID,25.709,VALID,344,VALID,0.436328,
2009-11-03, 00:19:04,VALID,1004.84,VALID,0,VALID,85.3519,VALID,0.100563,VALID,25.6662,VALID,354,VALID,0.827734,
2009-11-03, 00:20:04,VALID,1004.83,VALID,0,VALID,85.3367,VALID,0,VALID,25.6895,VALID,353,VALID,0.860937,
2009-11-03, 00:21:04,VALID,1004.84,VALID,0,VALID,85.3367,VALID,0,VALID,25.709,VALID,356,VALID,0.501953,
2009-11-03, 00:22:04,VALID,1004.84,VALID,0,VALID,85.1917,VALID,0,VALID,25.7285,VALID,341,VALID,0.848047,
2009-11-03, 00:23:04,VALID,1004.81,VALID,0,VALID,85.1459,VALID,0,VALID,25.748,VALID,348,VALID,1.12891,
2009-11-03, 00:24:04,VALID,1004.8,VALID,0,VALID,85.2146,VALID,0,VALID,25.748,VALID,357,VALID,0.643359,
2009-11-03, 00:25:04,VALID,1004.81,VALID,0,VALID,85.2756,VALID,0,VALID,25.7285,VALID,357,VALID,0.807422,
2009-11-03, 00:26:04,VALID,1004.83,VALID,0,VALID,85.268,VALID,0,VALID,25.709,VALID,356,VALID,1.06602,
2009-11-03, 00:27:04,VALID,1004.82,VALID,0,VALID,85.3748,VALID,0,VALID,25.6895,VALID,357,VALID,0.700391,
2009-11-03, 00:28:04,VALID,1004.85,VALID,0,VALID,85.5732,VALID,0.100563,VALID,25.6681,VALID,345,VALID,0.406641,
2009-11-03, 00:29:04,VALID,1004.84,VALID,0,VALID,85.596,VALID,0,VALID,25.67,VALID,344,VALID,0.382031,
2009-11-03, 00:30:04,VALID,1004.82,VALID,0,VALID,85.5655,VALID,0,VALID,25.6486,VALID,353,VALID,0.710938,
2009-11-03, 00:31:04,VALID,1004.8,VALID,0,VALID,85.5579,VALID,0,VALID,25.6486,VALID,353,VALID,0.629297,
2009-11-03, 00:32:04,VALID,1004.79,VALID,0,VALID,85.5045,VALID,0,VALID,25.6681,VALID,344,VALID,0.442969,
2009-11-03, 00:33:04,VALID,1004.78,VALID,0,VALID,85.4892,VALID,0,VALID,25.6681,VALID,343,VALID,0.954687,
2009-11-03, 00:34:04,VALID,1004.76,VALID,0,VALID,85.4206,VALID,0.100563,VALID,25.6876,VALID,357,VALID,0.553906,
2009-11-03, 00:35:04,VALID,1004.75,VALID,0,VALID,85.207,VALID,0.100563,VALID,25.709,VALID,354,VALID,0.837109,
2009-11-03, 00:36:04,VALID,1004.75,VALID,0,VALID,85.2146,VALID,0.100563,VALID,25.7071,VALID,313,VALID,0.351563,
2009-11-03, 00:37:04,VALID,1004.74,VALID,0,VALID,85.1917,VALID,0,VALID,25.7071,VALID,329,VALID,0.840234,
2009-11-03, 00:38:04,VALID,1004.76,VALID,0,VALID,85.123,VALID,0,VALID,25.7071,VALID,347,VALID,0.866797,
2009-11-03, 00:39:04,VALID,1004.74,VALID,0,VALID,85.0162,VALID,0,VALID,25.746,VALID,350,VALID,0.344922,
2009-11-03, 00:40:04,VALID,1004.72,VALID,0,VALID,85.0849,VALID,0,VALID,25.7674,VALID,327,VALID,0.939062,
2009-11-03, 00:41:04,VALID,1004.75,VALID,0,VALID,84.9705,VALID,0.100563,VALID,25.785,VALID,343,VALID,0.561328,
2009-11-03, 00:42:04,VALID,1004.75,VALID,0,VALID,84.9171,VALID,0,VALID,25.785,VALID,331,VALID,0.545313,
2009-11-03, 00:43:04,VALID,1004.74,VALID,0,VALID,84.9018,VALID,0,VALID,25.7869,VALID,351,VALID,0.658984,
2009-11-03, 00:44:04,VALID,1004.74,VALID,0,VALID,84.7416,VALID,0,VALID,25.8259,VALID,358,VALID,0.760547,
2009-11-03, 00:45:04,VALID,1004.72,VALID,0,VALID,84.7874,VALID,0,VALID,25.8064,VALID,352,VALID,0.766406,
2009-11-03, 00:46:04,VALID,1004.74,VALID,0,VALID,84.6348,VALID,0,VALID,25.8259,VALID,357,VALID,0.753125,
2009-11-03, 00:47:04,VALID,1004.71,VALID,0,VALID,84.4899,VALID,0,VALID,25.8064,VALID,340,VALID,0.999609,
2009-11-03, 00:48:04,VALID,1004.72,VALID,0,VALID,84.4517,VALID,0,VALID,25.8259,VALID,341,VALID,0.735156,
2009-11-03, 00:49:04,VALID,1004.73,VALID,0,VALID,84.3296,VALID,0,VALID,25.8648,VALID,350,VALID,0.908984,
2009-11-03, 00:50:04,VALID,1004.71,VALID,0,VALID,84.3754,VALID,0,VALID,25.8668,VALID,348,VALID,0.527734,
2009-11-03, 00:51:04,VALID,1004.69,VALID,0,VALID,84.3754,VALID,0,VALID,25.8453,VALID,351,VALID,0.847266,
2009-11-03, 00:52:04,VALID,1004.7,VALID,0,VALID,84.116,VALID,0,VALID,25.8843,VALID,341,VALID,1.10039,
2009-11-03, 00:53:04,VALID,1004.67,VALID,0,VALID,84.2152,VALID,0,VALID,25.8648,VALID,360,VALID,0.807813,
2009-11-03, 00:54:04,VALID,1004.66,VALID,0,VALID,84.0397,VALID,0,VALID,25.8843,VALID,359,VALID,0.927734,
2009-11-03, 00:55:04,VALID,1004.67,VALID,0,VALID,83.8185,VALID,0,VALID,25.9252,VALID,341,VALID,0.923828,
2009-11-03, 00:56:04,VALID,1004.67,VALID,0,VALID,83.7575,VALID,0,VALID,25.9447,VALID,360,VALID,0.351172,
2009-11-03, 00:57:04,VALID,1004.64,VALID,0,VALID,83.849,VALID,0,VALID,25.9232,VALID,7,VALID,0.557422,
2009-11-03, 00:58:04,VALID,1004.66,VALID,0,VALID,83.6583,VALID,0,VALID,25.9018,VALID,356,VALID,0.996484,
2009-11-03, 00:59:04,VALID,1004.67,VALID,0,VALID,83.4065,VALID,0,VALID,25.9427,VALID,350,VALID,0.471875,
2009-11-03, 01:00:04,VALID,1004.66,VALID,0,VALID,83.4981,VALID,0,VALID,25.9622,VALID,348,VALID,0.545703,
2009-11-03, 01:01:04,VALID,1004.69,VALID,0,VALID,83.3913,VALID,0,VALID,25.9427,VALID,343,VALID,0.414844,
2009-11-03, 01:02:04,VALID,1004.71,VALID,0,VALID,83.5134,VALID,0,VALID,25.9427,VALID,358,VALID,0.511719,
2009-11-03, 01:03:04,VALID,1004.7,VALID,0,VALID,83.3608,VALID,0,VALID,25.9427,VALID,344,VALID,0.373437,
2009-11-03, 01:04:04,VALID,1004.68,VALID,0,VALID,83.2845,VALID,0,VALID,25.9408,VALID,347,VALID,0.865625,
2009-11-03, 01:05:04,VALID,1004.65,VALID,0,VALID,83.3303,VALID,0,VALID,25.9427,VALID,331,VALID,0.169141,
2009-11-03, 01:06:04,VALID,1004.62,VALID,0,VALID,83.2769,VALID,0,VALID,25.9408,VALID,356,VALID,0.710547,
2009-11-03, 01:07:04,VALID,1004.58,VALID,0,VALID,83.1853,VALID,0,VALID,25.9817,VALID,356,VALID,0.618359,
2009-11-03, 01:08:04,VALID,1004.57,VALID,0,VALID,83.2158,VALID,0,VALID,25.9213,VALID,358,VALID,0.626172,
2009-11-03, 01:09:04,VALID,1004.49,VALID,0,VALID,83.3608,VALID,0,VALID,25.9427,VALID,3,VALID,0.601563,
2009-11-03, 01:10:04,VALID,1004.47,VALID,0,VALID,83.7041,VALID,0,VALID,25.8629,VALID,3,VALID,0.701172,
2009-11-03, 01:11:04,VALID,1004.44,VALID,0,VALID,83.8567,VALID,0,VALID,25.8259,VALID,356,VALID,0.550391,
2009-11-03, 01:12:04,VALID,1004.45,VALID,0,VALID,84.055,VALID,0,VALID,25.744,VALID,356,VALID,0.564453,
2009-11-03, 01:13:04,VALID,1004.44,VALID,0,VALID,84.2152,VALID,0,VALID,25.7499,VALID,356,VALID,0.407031,
2009-11-03, 01:14:04,VALID,1004.46,VALID,0,VALID,84.5204,VALID,0,VALID,25.6915,VALID,356,VALID,0.375781,
2009-11-03, 01:15:04,VALID,1004.44,VALID,0,VALID,84.9934,VALID,0,VALID,25.6116,VALID,356,VALID,0.199219,
2009-11-03, 01:16:04,VALID,1004.43,VALID,0,VALID,85.3061,VALID,0,VALID,25.5532,VALID,356,VALID,0.183594,
2009-11-03, 01:17:04,VALID,1004.45,VALID,0,VALID,85.7028,VALID,0,VALID,25.4948,VALID,356,VALID,0.289063,
2009-11-03, 01:18:04,VALID,1004.4,VALID,0,VALID,86.0156,VALID,0,VALID,25.4383,VALID,356,VALID,0,
2009-11-03, 01:19:04,VALID,1004.39,VALID,0,VALID,86.3589,VALID,0,VALID,25.3584,VALID,356,VALID,0,
2009-11-03, 01:20:04,VALID,1004.34,VALID,0,VALID,86.6412,VALID,0,VALID,25.3,VALID,360,VALID,0.370313,
2009-11-03, 01:21:04,VALID,1004.33,VALID,0,VALID,86.954,VALID,0,VALID,25.2416,VALID,360,VALID,0.279297,
2009-11-03, 01:22:04,VALID,1004.33,VALID,0,VALID,87.1523,VALID,0,VALID,25.224,VALID,360,VALID,0.332031,
2009-11-03, 01:23:04,VALID,1004.27,VALID,0,VALID,87.3354,VALID,0,VALID,25.1851,VALID,360,VALID,0.332422,
2009-11-03, 01:24:04,VALID,1004.25,VALID,0,VALID,87.549,VALID,0,VALID,25.1248,VALID,9,VALID,0.429297,
2009-11-03, 01:25:04,VALID,1004.23,VALID,0,VALID,87.7474,VALID,0,VALID,25.0663,VALID,9,VALID,0.377344,
2009-11-03, 01:26:04,VALID,1004.21,VALID,0,VALID,87.9305,VALID,0,VALID,25.0682,VALID,9,VALID,0.320313,
2009-11-03, 01:27:04,VALID,1004.17,VALID,0,VALID,88.0296,VALID,0,VALID,25.0469,VALID,9,VALID,0.4375,
2009-11-03, 01:28:04,VALID,1004.18,VALID,0,VALID,88.1975,VALID,0,VALID,25.0469,VALID,9,VALID,0.369922,
2009-11-03, 01:29:04,VALID,1004.17,VALID,0,VALID,88.289,VALID,0,VALID,24.9866,VALID,9,VALID,0.276953,
2009-11-03, 01:30:04,VALID,1004.17,VALID,0,VALID,88.5942,VALID,0,VALID,24.9495,VALID,9,VALID,0.236719,
2009-11-03, 01:31:04,VALID,1004.14,VALID,0,VALID,88.7697,VALID,0,VALID,24.8892,VALID,9,VALID,0.225,
2009-11-03, 01:32:04,VALID,1004.15,VALID,0,VALID,88.9604,VALID,0,VALID,24.8716,VALID,9,VALID,0.221094,
2009-11-03, 01:33:04,VALID,1004.11,VALID,0,VALID,89.174,VALID,0,VALID,24.79,VALID,9,VALID,0.310156,
2009-11-03, 01:34:04,VALID,1004.1,VALID,0,VALID,89.4028,VALID,0,VALID,24.7743,VALID,9,VALID,0.374219,
2009-11-03, 01:35:04,VALID,1004.12,VALID,0,VALID,89.5249,VALID,0,VALID,24.7548,VALID,9,VALID,0.340625,
2009-11-03, 01:36:04,VALID,1004.09,VALID,0,VALID,89.5478,VALID,0,VALID,24.714,VALID,9,VALID,0.303516,
2009-11-03, 01:37:04,VALID,1004.06,VALID,0,VALID,89.6927,VALID,0,VALID,24.6945,VALID,9,VALID,0.406641,
2009-11-03, 01:38:04,VALID,1004.08,VALID,0,VALID,89.9064,VALID,0,VALID,24.6769,VALID,9,VALID,0.324609,
2009-11-03, 01:39:04,VALID,1004.06,VALID,0,VALID,89.9979,VALID,0,VALID,24.6556,VALID,9,VALID,0.429688,
2009-11-03, 01:40:04,VALID,1004.07,VALID,0,VALID,90.12,VALID,0,VALID,24.6361,VALID,9,VALID,0.347266,
2009-11-03, 01:41:04,VALID,1004.04,VALID,0,VALID,90.1734,VALID,0,VALID,24.638,VALID,9,VALID,0.341797,
2009-11-03, 01:42:04,VALID,1004.01,VALID,0,VALID,90.2954,VALID,0,VALID,24.638,VALID,9,VALID,0.227734,
2009-11-03, 01:43:04,VALID,1004.01,VALID,0,VALID,90.3488,VALID,0,VALID,24.6185,VALID,9,VALID,0.425781,
2009-11-03, 01:44:04,VALID,1004,VALID,0,VALID,90.4022,VALID,0,VALID,24.599,VALID,9,VALID,0.424609,
2009-11-03, 01:45:04,VALID,1004,VALID,0,VALID,90.4633,VALID,0,VALID,24.5582,VALID,8,VALID,0.463672,
2009-11-03, 01:46:04,VALID,1003.99,VALID,0,VALID,90.5243,VALID,0,VALID,24.5388,VALID,8,VALID,0.350391,
2009-11-03, 01:47:04,VALID,1004,VALID,0,VALID,90.6387,VALID,0,VALID,24.5406,VALID,8,VALID,0.129688,
2009-11-03, 01:48:04,VALID,1003.99,VALID,0,VALID,90.7837,VALID,0,VALID,24.5406,VALID,8,VALID,0,
2009-11-03, 01:49:04,VALID,1003.95,VALID,0,VALID,90.6692,VALID,0,VALID,24.5388,VALID,8,VALID,0.0898438,
2009-11-03, 01:50:04,VALID,1003.95,VALID,0,VALID,90.5777,VALID,0,VALID,24.5582,VALID,8,VALID,0.145313,
2009-11-03, 01:51:04,VALID,1003.94,VALID,0,VALID,90.4251,VALID,0,VALID,24.5777,VALID,8,VALID,0.151172,
2009-11-03, 01:52:04,VALID,1003.92,VALID,0,VALID,90.3793,VALID,0,VALID,24.5972,VALID,7,VALID,0.494141,
2009-11-03, 01:53:04,VALID,1003.93,VALID,0,VALID,90.2344,VALID,0,VALID,24.6361,VALID,3,VALID,0.612109,
2009-11-03, 01:54:04,VALID,1003.91,VALID,0,VALID,90.1123,VALID,0,VALID,24.7159,VALID,3,VALID,0.360547,
2009-11-03, 01:55:04,VALID,1003.9,VALID,0,VALID,89.8453,VALID,0,VALID,24.714,VALID,360,VALID,0.38125,
2009-11-03, 01:56:04,VALID,1003.92,VALID,0,VALID,89.8453,VALID,0,VALID,24.7548,VALID,19,VALID,0.552734,
2009-11-03, 01:57:04,VALID,1003.91,VALID,0,VALID,89.8148,VALID,0,VALID,24.7529,VALID,15,VALID,0.457422,
2009-11-03, 01:58:04,VALID,1003.95,VALID,0,VALID,89.6012,VALID,0,VALID,24.7529,VALID,15,VALID,0.454297,
2009-11-03, 01:59:04,VALID,1003.9,VALID,0,VALID,89.6088,VALID,0,VALID,24.714,VALID,15,VALID,0.468359,
2009-11-03, 02:00:04,VALID,1003.93,VALID,0,VALID,89.9521,VALID,0,VALID,24.6556,VALID,10,VALID,0.495703,
2009-11-03, 02:01:04,VALID,1003.93,VALID,0,VALID,90.1047,VALID,0,VALID,24.5972,VALID,10,VALID,0.514063,
2009-11-03, 02:02:04,VALID,1003.94,VALID,0,VALID,90.3641,VALID,0.100563,VALID,24.5582,VALID,10,VALID,0.292969,
2009-11-03, 02:03:04,VALID,1003.92,VALID,0,VALID,90.7837,VALID,0.100563,VALID,24.5388,VALID,10,VALID,0.322266,
2009-11-03, 02:04:04,VALID,1003.94,VALID,0,VALID,90.9515,VALID,0,VALID,24.5388,VALID,10,VALID,0.258984,
2009-11-03, 02:05:04,VALID,1003.94,VALID,0,VALID,90.9668,VALID,0,VALID,24.5388,VALID,10,VALID,0.375,
2009-11-03, 02:06:04,VALID,1003.91,VALID,0,VALID,91.0507,VALID,0,VALID,24.5388,VALID,4,VALID,0.475391,
2009-11-03, 02:07:04,VALID,1003.92,VALID,0,VALID,90.9744,VALID,0.100563,VALID,24.5193,VALID,356,VALID,0.0988281,
2009-11-03, 02:08:04,VALID,1003.94,VALID,0,VALID,90.9668,VALID,0.100563,VALID,24.5388,VALID,356,VALID,0.233984,
2009-11-03, 02:09:04,VALID,1003.92,VALID,0,VALID,90.9057,VALID,0.100563,VALID,24.5174,VALID,356,VALID,0.246094,
2009-11-03, 02:10:04,VALID,1003.9,VALID,0,VALID,90.7913,VALID,0.100563,VALID,24.5388,VALID,356,VALID,0.327734,
2009-11-03, 02:11:04,VALID,1003.94,VALID,0,VALID,90.715,VALID,0,VALID,24.5388,VALID,356,VALID,0.389844,
2009-11-03, 02:12:04,VALID,1003.92,VALID,0,VALID,90.5853,VALID,0,VALID,24.5193,VALID,356,VALID,0.483594,
2009-11-03, 02:13:04,VALID,1003.93,VALID,0,VALID,90.6464,VALID,0,VALID,24.4414,VALID,356,VALID,0.641797,
2009-11-03, 02:14:04,VALID,1003.94,VALID,0,VALID,90.8676,VALID,0,VALID,24.4238,VALID,356,VALID,0.450781,
2009-11-03, 02:15:04,VALID,1003.94,VALID,0,VALID,91.127,VALID,0,VALID,24.3636,VALID,356,VALID,0.419141,
2009-11-03, 02:16:04,VALID,1003.94,VALID,0,VALID,91.4016,VALID,0,VALID,24.3654,VALID,356,VALID,0.407813,
2009-11-03, 02:17:04,VALID,1003.95,VALID,0,VALID,91.4321,VALID,0,VALID,24.3867,VALID,356,VALID,0.375391,
2009-11-03, 02:18:04,VALID,1003.94,VALID,0,VALID,91.4779,VALID,0,VALID,24.3654,VALID,356,VALID,0.392578,
2009-11-03, 02:19:04,VALID,1003.92,VALID,0,VALID,91.4321,VALID,0,VALID,24.3441,VALID,356,VALID,0.399609,
2009-11-03, 02:20:04,VALID,1003.89,VALID,0,VALID,91.4092,VALID,0,VALID,24.3459,VALID,356,VALID,0.410156,
2009-11-03, 02:21:04,VALID,1003.87,VALID,0,VALID,91.4169,VALID,0,VALID,24.307,VALID,356,VALID,0.517969,
2009-11-03, 02:22:04,VALID,1003.85,VALID,0,VALID,91.5923,VALID,0,VALID,24.2681,VALID,356,VALID,0.541797,
2009-11-03, 02:23:04,VALID,1003.84,VALID,0,VALID,91.722,VALID,0,VALID,24.2486,VALID,356,VALID,0.380859,
2009-11-03, 02:24:04,VALID,1003.84,VALID,0,VALID,91.8975,VALID,0,VALID,24.2097,VALID,356,VALID,0.475391,
2009-11-03, 02:25:04,VALID,1003.83,VALID,0,VALID,92.0806,VALID,0,VALID,24.1707,VALID,356,VALID,0.508594,
2009-11-03, 02:26:04,VALID,1003.86,VALID,0,VALID,92.1874,VALID,0,VALID,24.1707,VALID,356,VALID,0.461328,
2009-11-03, 02:27:04,VALID,1003.88,VALID,0,VALID,92.3323,VALID,0,VALID,24.1513,VALID,356,VALID,0.398828,
2009-11-03, 02:28:04,VALID,1003.9,VALID,0,VALID,92.2942,VALID,0,VALID,24.091,VALID,356,VALID,0.524219,
2009-11-03, 02:29:04,VALID,1003.9,VALID,0,VALID,92.4315,VALID,0,VALID,24.0929,VALID,356,VALID,0.401953,
2009-11-03, 02:30:04,VALID,1003.94,VALID,0,VALID,92.3934,VALID,0,VALID,24.0539,VALID,356,VALID,0.649609,
2009-11-03, 02:31:04,VALID,1003.91,VALID,0,VALID,92.5688,VALID,0,VALID,23.9937,VALID,356,VALID,0.569531,
2009-11-03, 02:32:04,VALID,1003.92,VALID,0,VALID,92.6146,VALID,0,VALID,24.015,VALID,356,VALID,0.623438,
2009-11-03, 02:33:04,VALID,1003.92,VALID,0,VALID,92.729,VALID,0,VALID,23.9761,VALID,356,VALID,0.685156,
2009-11-03, 02:34:04,VALID,1003.91,VALID,0,VALID,92.8587,VALID,0,VALID,23.9566,VALID,356,VALID,0.639453,
2009-11-03, 02:35:04,VALID,1003.93,VALID,0,VALID,92.9655,VALID,0,VALID,23.9159,VALID,356,VALID,0.491016,
2009-11-03, 02:36:04,VALID,1003.94,VALID,0,VALID,93.0723,VALID,0,VALID,23.9371,VALID,356,VALID,0.450391,
2009-11-03, 02:37:04,VALID,1003.96,VALID,0,VALID,93.1715,VALID,0,VALID,23.9177,VALID,356,VALID,0.482031,
2009-11-03, 02:38:04,VALID,1003.97,VALID,0,VALID,93.2402,VALID,0,VALID,23.8964,VALID,356,VALID,0.385547,
2009-11-03, 02:39:04,VALID,1003.99,VALID,0,VALID,93.3165,VALID,0,VALID,23.9159,VALID,356,VALID,0.412109,
2009-11-03, 02:40:04,VALID,1004.02,VALID,0,VALID,93.408,VALID,0,VALID,23.9159,VALID,356,VALID,0.453906,
2009-11-03, 02:41:04,VALID,1004.07,VALID,0,VALID,93.408,VALID,0,VALID,23.9177,VALID,356,VALID,0.369531,
2009-11-03, 02:42:04,VALID,1004.07,VALID,0,VALID,93.3928,VALID,0,VALID,23.8964,VALID,356,VALID,0.416406,
2009-11-03, 02:43:04,VALID,1004.06,VALID,0,VALID,93.4156,VALID,0,VALID,23.8769,VALID,356,VALID,0.523828,
2009-11-03, 02:44:04,VALID,1004.08,VALID,0,VALID,93.4538,VALID,0,VALID,23.8769,VALID,356,VALID,0.541406,
2009-11-03, 02:45:04,VALID,1004.09,VALID,0,VALID,93.4996,VALID,0,VALID,23.8575,VALID,356,VALID,0.494922,
2009-11-03, 02:46:04,VALID,1004.1,VALID,0,VALID,93.5377,VALID,0,VALID,23.8575,VALID,356,VALID,0.589453,
2009-11-03, 02:47:04,VALID,1004.1,VALID,0,VALID,93.5987,VALID,0,VALID,23.8593,VALID,356,VALID,0.605078,
2009-11-03, 02:48:04,VALID,1004.13,VALID,0,VALID,93.6598,VALID,0,VALID,23.8593,VALID,356,VALID,0.707031,
2009-11-03, 02:49:04,VALID,1004.14,VALID,0,VALID,93.6903,VALID,0,VALID,23.8398,VALID,356,VALID,0.735156,
2009-11-03, 02:50:04,VALID,1004.15,VALID,0,VALID,93.7589,VALID,0,VALID,23.8203,VALID,356,VALID,0.530469,
2009-11-03, 02:51:04,VALID,1004.19,VALID,0,VALID,93.7971,VALID,0,VALID,23.7991,VALID,356,VALID,0.832031,
2009-11-03, 02:52:04,VALID,1004.17,VALID,0,VALID,93.7971,VALID,0,VALID,23.7814,VALID,356,VALID,0.751172,
2009-11-03, 02:53:04,VALID,1004.18,VALID,0,VALID,93.8429,VALID,0,VALID,23.7814,VALID,356,VALID,0.660937,
2009-11-03, 02:54:04,VALID,1004.16,VALID,0,VALID,93.9344,VALID,0,VALID,23.7601,VALID,356,VALID,0.520312,
2009-11-03, 02:55:04,VALID,1004.17,VALID,0,VALID,93.9649,VALID,0,VALID,23.7601,VALID,356,VALID,0.471484,
2009-11-03, 02:56:04,VALID,1004.14,VALID,0,VALID,94.0412,VALID,0,VALID,23.7601,VALID,356,VALID,0.410156,
2009-11-03, 02:57:04,VALID,1004.13,VALID,0,VALID,94.1022,VALID,0,VALID,23.8009,VALID,356,VALID,0.426562,
2009-11-03, 02:58:04,VALID,1004.1,VALID,0,VALID,94.0717,VALID,0,VALID,23.7796,VALID,356,VALID,0.39375,
2009-11-03, 02:59:04,VALID,1004.08,VALID,0,VALID,94.1251,VALID,0,VALID,23.7991,VALID,356,VALID,0.386328,
2009-11-03, 03:00:04,VALID,1004.07,VALID,0,VALID,94.1175,VALID,0,VALID,23.8203,VALID,356,VALID,0.331641,
2009-11-03, 03:01:04,VALID,1004.12,VALID,0,VALID,94.1404,VALID,0,VALID,23.8203,VALID,356,VALID,0.307031,
2009-11-03, 03:02:04,VALID,1004.11,VALID,0,VALID,94.1633,VALID,0,VALID,23.8398,VALID,356,VALID,0.370703,
2009-11-03, 03:03:04,VALID,1004.11,VALID,0,VALID,94.2014,VALID,0,VALID,23.8982,VALID,356,VALID,0.298828,
2009-11-03, 03:04:04,VALID,1004.14,VALID,0,VALID,94.148,VALID,0,VALID,23.8964,VALID,356,VALID,0.229297,
2009-11-03, 03:05:04,VALID,1004.17,VALID,0,VALID,94.087,VALID,0,VALID,23.9159,VALID,356,VALID,0,
2009-11-03, 03:06:04,VALID,1004.16,VALID,0,VALID,94.0259,VALID,0,VALID,23.9353,VALID,356,VALID,0.247656,
2009-11-03, 03:07:04,VALID,1004.19,VALID,0,VALID,93.9191,VALID,0,VALID,23.9761,VALID,356,VALID,0.422656,
2009-11-03, 03:08:04,VALID,1004.2,VALID,0,VALID,93.7589,VALID,0,VALID,23.9566,VALID,356,VALID,0.361719,
2009-11-03, 03:09:04,VALID,1004.2,VALID,0,VALID,93.6598,VALID,0,VALID,23.9548,VALID,356,VALID,0.286328,
2009-11-03, 03:10:04,VALID,1004.21,VALID,0,VALID,93.7055,VALID,0,VALID,23.9955,VALID,356,VALID,0,
2009-11-03, 03:11:04,VALID,1004.24,VALID,0,VALID,93.6674,VALID,0,VALID,23.9937,VALID,356,VALID,0.126172,
2009-11-03, 03:12:04,VALID,1004.22,VALID,0,VALID,93.5911,VALID,0,VALID,23.9955,VALID,356,VALID,0.399219,
2009-11-03, 03:13:04,VALID,1004.21,VALID,0,VALID,93.5911,VALID,0,VALID,24.0132,VALID,356,VALID,0.315625,
2009-11-03, 03:14:04,VALID,1004.21,VALID,0,VALID,93.6369,VALID,0,VALID,24.0132,VALID,356,VALID,0,
2009-11-03, 03:15:04,VALID,1004.22,VALID,0,VALID,93.6521,VALID,0,VALID,24.0521,VALID,356,VALID,0,
2009-11-03, 03:16:04,VALID,1004.23,VALID,0,VALID,93.614,VALID,0,VALID,24.1123,VALID,356,VALID,0,
2009-11-03, 03:17:04,VALID,1004.23,VALID,0,VALID,93.614,VALID,0,VALID,24.1123,VALID,356,VALID,0,
2009-11-03, 03:18:04,VALID,1004.21,VALID,0,VALID,93.5911,VALID,0,VALID,24.1105,VALID,356,VALID,0,
2009-11-03, 03:19:04,VALID,1004.22,VALID,0,VALID,93.614,VALID,0.100563,VALID,24.1494,VALID,356,VALID,0,
2009-11-03, 03:20:04,VALID,1004.17,VALID,0,VALID,93.553,VALID,0,VALID,24.13,VALID,356,VALID,0,
2009-11-03, 03:21:04,VALID,1004.15,VALID,0,VALID,93.4919,VALID,0,VALID,24.1513,VALID,356,VALID,0.360156,
2009-11-03, 03:22:04,VALID,1004.13,VALID,0,VALID,93.4309,VALID,0,VALID,24.1513,VALID,356,VALID,0.574219,
2009-11-03, 03:23:04,VALID,1004.12,VALID,0,VALID,93.3165,VALID,0,VALID,24.1513,VALID,356,VALID,0.726172,
2009-11-03, 03:24:04,VALID,1004.08,VALID,0,VALID,93.2478,VALID,0,VALID,24.1105,VALID,356,VALID,0.600781,
2009-11-03, 03:25:04,VALID,1004.07,VALID,0,VALID,93.2478,VALID,0,VALID,24.1105,VALID,356,VALID,0.68125,
2009-11-03, 03:26:04,VALID,1004.09,VALID,0,VALID,93.2783,VALID,0,VALID,24.1318,VALID,356,VALID,0.475391,
2009-11-03, 03:27:04,VALID,1004.08,VALID,0,VALID,93.347,VALID,0,VALID,24.1513,VALID,356,VALID,0.298438,
2009-11-03, 03:28:04,VALID,1004.04,VALID,0,VALID,93.4004,VALID,0,VALID,24.13,VALID,356,VALID,0.417578,
2009-11-03, 03:29:04,VALID,1004.04,VALID,0,VALID,93.4233,VALID,0,VALID,24.13,VALID,356,VALID,0.476563,
2009-11-03, 03:30:04,VALID,1004.04,VALID,0,VALID,93.4004,VALID,0,VALID,24.1707,VALID,356,VALID,0.369922,
2009-11-03, 03:31:04,VALID,1003.99,VALID,0,VALID,93.3851,VALID,0,VALID,24.1707,VALID,356,VALID,0.275391,
2009-11-03, 03:32:04,VALID,1003.97,VALID,0,VALID,93.3699,VALID,0,VALID,24.1902,VALID,356,VALID,0.366406,
2009-11-03, 03:33:04,VALID,1003.91,VALID,0,VALID,93.3317,VALID,0,VALID,24.1902,VALID,356,VALID,0.401563,
2009-11-03, 03:34:04,VALID,1003.91,VALID,0,VALID,93.2936,VALID,0,VALID,24.1707,VALID,356,VALID,0.426172,
2009-11-03, 03:35:04,VALID,1003.9,VALID,0,VALID,93.3088,VALID,0,VALID,24.1707,VALID,356,VALID,0.310547,
2009-11-03, 03:36:04,VALID,1003.88,VALID,0,VALID,93.3088,VALID,0,VALID,24.1513,VALID,356,VALID,0.302344,
2009-11-03, 03:37:04,VALID,1003.86,VALID,0,VALID,93.3394,VALID,0,VALID,24.13,VALID,356,VALID,0.447656,
2009-11-03, 03:38:04,VALID,1003.87,VALID,0,VALID,93.3546,VALID,0,VALID,24.1318,VALID,356,VALID,0.430859,
2009-11-03, 03:39:04,VALID,1003.87,VALID,0,VALID,93.4156,VALID,0,VALID,24.1318,VALID,356,VALID,0.574219,
2009-11-03, 03:40:04,VALID,1003.88,VALID,0,VALID,93.4462,VALID,0,VALID,24.1513,VALID,356,VALID,0.422266,
2009-11-03, 03:41:04,VALID,1003.85,VALID,0,VALID,93.4385,VALID,0,VALID,24.1318,VALID,356,VALID,0.459375,
2009-11-03, 03:42:04,VALID,1003.88,VALID,0,VALID,93.469,VALID,0,VALID,24.0929,VALID,356,VALID,0.470703,
2009-11-03, 03:43:04,VALID,1003.89,VALID,0,VALID,93.5224,VALID,0,VALID,24.091,VALID,356,VALID,0.507031,
2009-11-03, 03:44:04,VALID,1003.89,VALID,0,VALID,93.6598,VALID,0,VALID,24.1318,VALID,356,VALID,0.375781,